Date String (YYYY-MM-DD hh:mm:ss) UTC,Instrument flags,Ambient pressure (hPa),Sample flow (lpm),Bypass flow (lpm),Sample temperature (°C),Ambient temperature (°C),ASC tube jacket temperature (°C),LED temperature (°C),Box temperature (°C),Sample RH (%),Span deviation,Mass concentration (μg/m³),Mass concentration (μg/m³),Mass concentration (μg/m³)
DateTimeUTC,F1_M11,P_M11,Q1_M11,Q2_M11,T1_M11,T2_M11,T3_M11,T4_M11,T5_M11,U1_M11,ZSPAN_M11,X0_M11,X2_M11,X1_M11
2022-07-27 17:00:00,,0829.2,5.01,0.00,32.1,28.5,00.0,40.1,32.5,34.6,0001.6,0015.60,0009.58,0008.75
2022-07-27 17:01:00,,0829.2,4.99,0.00,32.0,27.9,00.0,40.1,32.4,34.6,0001.5,0016.11,0009.59,0008.80
2022-07-27 17:02:00,,0829.3,5.01,0.00,31.9,27.5,00.0,40.0,32.3,34.9,0001.4,0016.05,0009.68,0008.89
2022-07-27 17:03:00,,0829.3,4.99,0.00,31.9,27.5,00.0,40.0,32.2,34.7,0001.3,0016.40,0009.79,0008.99
2022-07-27 17:04:00,,0829.2,5.01,0.00,31.8,27.6,00.0,40.0,32.1,35.0,0001.1,0016.26,0009.83,0009.03
2022-07-27 17:05:00,,0829.3,5.00,0.00,31.9,27.7,00.0,40.0,32.2,35.3,0001.3,0016.48,0009.92,0009.09
2022-07-27 17:06:00,,0829.2,4.99,0.00,32.1,27.9,00.0,40.0,32.4,35.5,0001.5,0016.28,0009.97,0009.14
2022-07-27 17:07:00,,0829.3,5.01,0.00,32.4,28.1,00.0,40.0,32.5,34.7,0001.6,0016.21,0009.96,0009.15
2022-07-27 17:08:00,,0829.2,4.99,0.00,32.6,28.3,00.0,40.0,32.6,34.3,0001.6,0016.12,0009.92,0009.13
2022-07-27 17:09:00,,0829.2,4.99,0.00,32.7,28.5,00.0,40.0,32.6,34.2,0001.3,0016.14,0009.90,0009.09
2022-07-27 17:10:00,,0829.3,5.00,0.00,32.7,28.6,00.0,40.1,32.6,33.3,0001.3,0016.70,0009.90,0009.08
2022-07-27 17:11:00,,0829.2,5.00,0.00,32.7,28.2,00.0,40.1,32.6,34.0,0001.3,0016.81,0009.94,0009.10
2022-07-27 17:12:00,,0829.2,4.99,0.00,32.7,27.6,00.0,40.1,32.5,34.7,0001.4,0016.68,0010.11,0009.24
2022-07-27 17:13:00,,0829.3,5.01,0.00,32.7,27.4,00.0,40.1,32.4,35.3,0001.6,0016.98,0010.19,0009.32
2022-07-27 17:14:00,,0829.3,4.99,0.00,32.7,27.5,00.0,40.2,32.4,34.8,0001.8,0017.14,0010.23,0009.36
2022-07-27 17:15:00,,0829.3,5.01,0.00,32.8,27.6,00.0,40.2,32.4,35.0,0001.8,0018.46,0010.29,0009.44
2022-07-27 17:16:00,,0829.2,4.98,0.00,32.9,27.8,00.0,40.2,32.4,34.8,0001.7,0018.84,0010.35,0009.49
2022-07-27 17:17:00,,0829.3,5.01,0.00,32.9,28.0,00.0,40.3,32.5,34.6,0001.6,0018.98,0010.45,0009.58
2022-07-27 17:18:00,,0829.3,4.99,0.00,32.9,28.1,00.0,40.3,32.5,34.7,0001.4,0019.19,0010.54,0009.68
2022-07-27 17:19:00,,0829.2,5.00,0.00,32.9,28.3,00.0,40.4,32.5,34.5,0001.7,0019.58,0010.70,0009.82
2022-07-27 17:20:00,,0829.3,5.01,0.00,32.8,28.5,00.0,40.4,32.6,34.3,0001.5,0019.85,0010.89,0009.98
2022-07-27 17:21:00,,0829.3,5.02,0.00,32.8,28.6,00.0,40.4,32.6,34.4,0001.2,0019.98,0011.08,0010.16
2022-07-27 17:22:00,,0829.3,4.99,0.00,32.7,28.4,00.0,40.4,32.6,34.3,0001.1,0019.47,0011.20,0010.31
2022-07-27 17:23:00,,0829.2,5.00,0.00,32.6,27.8,00.0,40.4,32.5,34.6,0001.3,0019.05,0011.21,0010.33
2022-07-27 17:24:00,,0829.3,5.01,0.00,32.5,27.5,00.0,40.4,32.4,34.2,0001.3,0018.69,0011.19,0010.33
2022-07-27 17:25:00,,0829.3,5.00,0.00,32.4,27.5,00.0,40.4,32.3,34.4,0001.0,0018.25,0011.13,0010.31
2022-07-27 17:26:00,,0829.3,5.00,0.00,32.3,27.6,00.0,40.3,32.2,35.0,0000.6,0017.64,0011.07,0010.28
2022-07-27 17:27:00,,0829.5,4.98,0.00,32.3,27.8,00.0,40.3,32.3,34.6,0000.7,0017.27,0011.02,0010.28
2022-07-27 17:28:00,,0829.4,5.02,0.00,32.3,28.0,00.0,40.3,32.4,35.0,0000.8,0017.22,0010.96,0010.21
2022-07-27 17:29:00,,0829.5,4.99,0.00,32.4,28.1,00.0,40.3,32.5,33.9,0000.9,0017.36,0010.80,0010.06
2022-07-27 17:30:00,,0829.5,4.99,0.00,32.4,28.3,00.0,40.3,32.5,33.9,0000.6,0017.00,0010.61,0009.86
2022-07-27 17:31:00,,0829.5,5.00,0.00,32.4,28.5,00.0,40.3,32.5,33.8,0000.8,0016.91,0010.38,0009.63
2022-07-27 17:32:00,,0829.5,5.01,0.00,32.4,28.6,00.0,40.3,32.5,33.8,0001.1,0016.26,0010.09,0009.40
2022-07-27 17:33:00,,0829.5,5.00,0.00,32.4,28.5,00.0,40.3,32.6,33.4,0001.1,0015.74,0009.85,0009.17
2022-07-27 17:34:00,,0829.5,5.00,0.00,32.3,27.9,00.0,40.2,32.5,34.3,0000.9,0015.46,0009.67,0009.01
2022-07-27 17:35:00,,0829.5,5.01,0.00,32.2,27.5,00.0,40.2,32.4,33.7,0000.8,0016.61,0009.58,0008.90
2022-07-27 17:36:00,,0829.5,5.00,0.00,32.1,27.5,00.0,40.2,32.2,34.6,0001.0,0016.98,0009.55,0008.83
2022-07-27 17:37:00,,0829.5,5.02,0.00,32.0,27.6,00.0,40.2,32.2,35.4,0001.5,0016.88,0009.44,0008.72
2022-07-27 17:38:00,,0829.5,4.98,0.00,32.1,27.7,00.0,40.1,32.3,34.6,0001.5,0016.22,0009.36,0008.65
2022-07-27 17:39:00,,0829.5,5.00,0.00,32.1,27.9,00.0,40.1,32.3,34.4,0001.4,0016.04,0009.28,0008.60
2022-07-27 17:40:00,,0829.5,5.01,0.00,32.2,28.1,00.0,40.1,32.4,34.9,0001.2,0015.62,0009.28,0008.57
2022-07-27 17:41:00,,0829.5,4.99,0.00,32.3,28.3,00.0,40.1,32.5,34.2,0001.4,0015.75,0009.23,0008.56
2022-07-27 17:42:00,,0829.5,5.01,0.00,32.3,28.5,00.0,40.1,32.5,34.7,0001.3,0015.58,0009.20,0008.55
2022-07-27 17:43:00,,0829.5,5.00,0.00,32.3,28.6,00.0,40.1,32.5,34.7,0001.0,0015.72,0009.20,0008.56
2022-07-27 17:44:00,,0829.5,4.99,0.00,32.4,28.2,00.0,40.1,32.5,34.9,0000.7,0016.06,0009.28,0008.61
2022-07-27 17:45:00,,0829.5,5.01,0.00,32.4,27.7,00.0,40.1,32.5,34.6,0000.5,0016.18,0009.28,0008.59
2022-07-27 17:46:00,,0829.5,4.99,0.00,32.4,27.4,00.0,40.1,32.4,34.5,0000.5,0015.33,0009.22,0008.54
2022-07-27 17:47:00,,0829.5,5.01,0.00,32.3,27.4,00.0,40.1,32.2,34.7,0000.4,0015.03,0009.14,0008.47
2022-07-27 17:48:00,,0829.5,4.99,0.00,32.2,27.6,00.0,40.1,32.2,35.0,-000.1,0014.51,0009.13,0008.46
2022-07-27 17:49:00,,0829.5,5.01,0.00,32.3,27.8,00.0,40.1,32.3,34.9,-000.3,0014.51,0009.09,0008.39
2022-07-27 17:50:00,,0829.5,5.01,0.00,32.4,27.9,00.0,40.1,32.4,34.1,-000.4,0015.00,0009.06,0008.34
2022-07-27 17:51:00,,0829.5,4.99,0.00,32.4,28.1,00.0,40.1,32.4,33.7,-000.2,0015.18,0009.04,0008.37
2022-07-27 17:52:00,,0829.5,5.00,0.00,32.4,28.3,00.0,40.1,32.4,33.9,-000.6,0014.75,0009.02,0008.38
2022-07-27 17:53:00,,0829.6,4.99,0.00,32.4,28.5,00.0,40.2,32.5,34.8,-000.4,0014.64,0009.01,0008.37
2022-07-27 17:54:00,,0829.5,5.01,0.00,32.4,28.5,00.0,40.2,32.5,34.1,-000.5,0015.09,0009.02,0008.32
2022-07-27 17:55:00,,0829.5,4.99,0.00,32.4,28.0,00.0,40.2,32.5,32.7,-000.5,0015.52,0008.95,0008.25
2022-07-27 17:56:00,,0829.5,5.01,0.00,32.4,27.5,00.0,40.1,32.4,33.2,-000.0,0015.71,0008.92,0008.21
2022-07-27 17:57:00,,0829.6,5.00,0.00,32.3,27.4,00.0,40.1,32.3,33.9,0000.0,0015.16,0008.94,0008.23
2022-07-27 17:58:00,,0829.5,4.99,0.00,32.1,27.5,00.0,40.1,32.1,34.4,0000.1,0015.00,0008.97,0008.26
2022-07-27 17:59:00,,0829.5,5.02,0.00,32.0,27.6,00.0,40.1,32.1,34.6,0000.1,0014.83,0008.96,0008.27
